#timestamp,LO_Frequency,Hit,StdDev 
1560337215.1,286046999.2,N
1560337216.0,286046999.2,N
1560337235.8,286046999.6,N
1560337255.6,286046996.5,Y
1560337275.5,286046998.4,P
1560337295.3,286046996.9,P
1560337315.2,286046998.7,N
1560337335.9,286046998.8,N
1560337355.7,286046999.5,N
1560337375.6,286046997.3,Y
1560337395.4,286046998.4,P
1560337415.2,286046998.6,P
1560337435.1,286046998.7,P
1560337436.0,286046998.7,Y
1560337455.8,286047000.3,P
1560337475.7,286046998.2,N
1560337495.5,286047000.4,N
1560337515.1,286046999.7,N
1560337516.0,286046999.7,N
1560337535.8,286047001.0,N
1560337555.7,286046998.2,N
1560337575.5,286046998.1,N
1560337595.3,286047000.5,N
1560337615.2,286047000.3,N
1560337635.9,286047000.3,N
1560337655.7,286046999.9,N
1560337675.6,286047000.4,N
1560337695.4,286046999.8,N
1560337715.3,286047000.8,N
1560337735.1,286046999.1,N
1560337736.0,286046999.1,N
1560337755.8,286047000.9,N
1560337775.7,286046999.0,N
1560337795.5,286046998.6,N
1560337815.3,286046999.5,N
1560337835.2,286046998.2,N
1560337855.0,286046998.6,N
1560337855.9,286046998.6,N
1560337875.8,286046999.0,N
1560337895.6,286047000.9,N
1560337915.4,286047000.3,N
1560337935.3,286047002.8,N
1560337955.1,286047002.8,N
1560337975.8,286046999.7,N
1560337995.7,286046999.9,N
1560338015.5,286047001.2,N
1560338035.4,286046998.6,N
1560338055.2,286047000.3,N
1560338075.0,286047000.0,N
1560338075.9,286047000.0,N
1560338095.8,286046999.1,N
1560338115.6,286046998.2,N
1560338135.5,286046998.5,N
1560338155.3,286047000.6,N
1560338175.1,286047011.9,Y
1560338195.9,286047002.1,P
1560338215.7,286047001.9,N
1560338235.5,286047004.1,P
1560338255.4,286047001.6,N
1560338275.2,286047000.0,N
1560338295.1,286047000.8,N
1560338296.0,286047000.8,N
1560338315.8,286046998.9,N
1560338335.6,286046996.6,N
1560338355.5,286046999.3,N
1560338375.3,286046998.4,N
1560338395.1,286046999.3,N
1560338415.9,286047001.1,N
1560338435.7,286047000.0,N
1560338455.5,286047002.4,N
1560338475.4,286047004.4,N
1560338495.2,286046999.8,N
1560338515.1,286046999.7,N
1560338516.0,286046999.7,N
1560338535.8,286047000.9,N
1560338555.6,286047000.1,N
1560338575.5,286047002.4,N
1560338595.3,286047002.4,N
1560338615.1,286047002.1,N
1560338635.9,286047001.9,N
1560338655.7,286047001.8,N
1560338675.6,286047001.9,N
1560338695.4,286047001.6,N
1560338715.2,286046999.8,N
1560338735.1,286047000.8,N
1560338736.0,286047000.8,N
1560338755.8,286047000.3,N
1560338775.7,286046998.4,N
1560338795.5,286046999.2,N
1560338815.3,286046999.5,N
1560338835.2,286046999.3,N
1560338855.9,286046998.1,N
1560338875.7,286047000.2,N
1560338895.6,286047001.9,N
1560338915.4,286047004.3,N
1560338935.2,286047004.3,N
1560338955.1,286047005.6,Y
1560338975.8,286047004.1,P
1560338995.7,286047003.7,N
1560339015.5,286047001.6,N
1560339035.3,286047002.4,N
1560339055.2,286047002.8,N
1560339075.0,286047002.5,N
1560339075.9,286047002.5,N
1560339095.8,286047000.6,N
1560339115.6,286046998.8,N
1560339135.5,286046999.4,N
1560339155.3,286046999.2,N
1560339175.2,286046998.6,N
1560339195.9,286047000.8,N
1560339215.7,286047000.6,N
1560339235.6,286047000.0,N
1560339255.4,286046999.7,N
1560339275.2,286047000.9,N
1560339295.1,286047002.5,N
1560339296.0,286047002.5,N
1560339315.8,286047002.6,N
1560339335.7,286047001.8,N
1560339355.5,286047002.6,N
1560339375.3,286047001.5,N
1560339395.5,286047001.7,N
1560339415.4,286046999.8,N
1560339435.2,286047000.1,N
1560339455.0,286046999.8,N
1560339455.9,286046999.8,N
1560339475.8,286047001.0,N
1560339495.6,286047000.3,N
1560339515.5,286047000.1,N
1560339535.3,286047002.8,N
1560339555.1,286047001.2,N
1560339575.9,286046998.2,N
1560339595.7,286047000.0,N
1560339615.5,286046998.4,N
1560339635.4,286046999.0,N
1560339655.2,286047001.2,N
1560339675.8,286046999.5,N
1560339695.6,286046996.7,N
1560339715.4,286046998.9,N
1560339735.3,286047000.3,N
1560339755.1,286046999.7,N
1560339775.9,286047002.7,N
1560339795.7,286047000.0,N
1560339815.5,286046998.8,N
1560339835.4,286046998.4,N
1560339855.2,286046996.7,N
1560339875.0,286046998.9,N
1560339875.9,286046998.9,N
1560339895.8,286046998.6,N
1560339915.6,286047000.6,N
1560339935.5,286046998.5,N
1560339955.3,286047000.5,N
1560339975.1,286047002.0,N
1560339995.5,286047004.2,N
1560340015.3,286047003.5,N
1560340035.1,286047003.5,N
1560340055.9,286047003.6,N
1560340075.7,286047005.6,N
1560340095.6,286047003.4,N
1560340115.4,286047003.9,N
1560340135.2,286047001.7,N
1560340155.4,286047002.4,N
1560340175.2,286047000.2,N
1560340195.0,286047000.9,N
1560340196.0,286047000.9,N
1560340215.8,286046999.8,N
1560340235.6,286047000.0,N
1560340255.5,286047002.5,N
1560340275.3,286047004.4,N
1560340295.1,286047002.2,N
1560340315.9,286047004.0,N
1560340335.2,286047004.2,N
1560340355.9,286047004.0,N
1560340375.7,286047002.1,N
1560340395.6,286047004.4,N
1560340415.4,286046999.7,N
1560340435.2,286047002.7,N
1560340455.1,286047002.5,N
1560340456.0,286047002.5,N
1560340475.8,286047002.4,N
1560340495.7,286047002.8,N
1560340515.5,286047002.3,N
1560340535.3,286047002.3,N
1560340555.2,286047002.7,N
1560340575.0,286046999.7,N
1560340575.9,286046999.7,N
1560340595.7,286046999.7,N
1560340615.6,286047000.4,N
1560340635.4,286047000.7,N
1560340655.3,286047001.2,N
1560340675.1,286047000.7,N
1560340695.8,286046998.2,N
1560340715.7,286046998.5,N
1560340735.5,286046998.1,N
1560340755.4,286046997.0,N
1560340775.2,286046998.4,N
1560340795.0,286046999.0,N
1560340795.9,286046999.0,N
